Location: Proctor
(47.8934°N, 114.3048°W)
Time: 21:49:50
(UTC+00:00)

AO-92 - Pass Details

Date: 07 July 2022
Orbit: 469 x 481 km, 97.4° (Epoch: 13 August)

Event Time Altitude Azimuth Distance (km) Brightness Sun altitude
Exits shadow 06:03:24 23° 206° (SSW) 1,071 ? -16.1°
Maximum altitude 06:05:10 39° 262° (W) 733 ? -16.2°
Drops below altitude 10° 06:08:35 10° 333° (NNW) 1,673 ? -16.5°
Sets 06:10:45 0° 341° (NNW) 2,560 ? -16.6°
